Location: Mount Kobau Star Party
(49.1167°N, 119.7333°W)
Time: 12:34:48
(UTC-07:00)

ARIANE 6 FM1 Upper Stage - Pass Details

Date: 11 April 2026
Orbit: 526 x 601 km, 62.0° (Epoch: 18 May)

Event Time Altitude Azimuth Distance (km) Brightness Sun altitude
Rises 00:14:58 0° 298° (WNW) 2,694 6.7 -31.7°
Reaches altitude 10° 00:18:16 10° 327° (NNW) 1,790 6.0 -31.8°
Maximum altitude 00:20:13 13° 356° (N) 1,590 5.7 -31.9°
Drops below altitude 10° 00:22:11 10° 25° (NNE) 1,779 5.8 -31.9°
Sets 00:25:26 0° 54° (NE) 2,664 6.4 -32.0°
